Theta_e
344 345 341 342 340 338 336 335 334 336 334 330 326 325 325 326 324 325 325 325 324 324 324 319 319 320 318 320 321 321 320 318 321 318 320 322 320 323 323 324 325 324 324
341 341 340 340 340 338 335 334 335 334 332 329 330 329 327 324 323 324 325 324 322 323 321 321 319 321 317 319 318 319 316 316 318 314 314 311 314 316 319 321 322 321 320
339 339 337 338 337 333 333 334 334 333 332 333 328 327 325 323 322 322 321 321 320 321 321 320 320 319 320 315 317 318 317 312 314 317 311 308 306 309 316 318 319 321 318
339 341 339 336 335 334 334 335 334 332 331 332 328 328 322 320 321 321 321 320 320 319 319 320 320 320 317 318 316 316 317 315 309 311 311 313 311 304 305 312 314 317 315
339 339 338 337 336 333 332 333 331 331 331 329 329 325 324 322 321 321 322 321 320 318 317 319 320 319 317 318 318 317 316 313 310 306 306 309 306 308 304 302 304 308 312
339 341 338 337 335 333 330 328 328 329 329 328 327 327 325 323 320 320 318 317 317 318 319 318 320 319 320 317 317 318 316 314 311 309 309 306 304 304 304 302 304 303 306
337 339 332 331 333 330 330 328 327 326 327 326 325 325 325 324 323 321 317 317 316 316 319 319 319 317 319 318 318 317 316 314 311 313 309 309 308 308 307 305 304 303 308
336 338 332 334 330 331 330 328 325 325 325 324 324 325 325 322 321 322 318 317 317 317 320 318 319 317 316 318 317 314 314 315 311 313 313 310 309 309 308 306 304 301 304
336 337 333 332 331 331 331 329 326 324 324 324 324 324 324 324 321 322 321 318 320 318 319 317 317 315 313 316 317 312 313 313 313 313 313 311 311 310 310 309 307 304 300
337 337 335 332 332 332 332 329 327 324 324 323 323 322 323 322 322 321 319 318 319 318 317 316 315 314 312 315 317 315 314 314 312 312 313 315 312 312 311 310 309 308 304
336 336 335 333 332 332 331 328 326 324 323 323 323 323 322 322 321 319 318 317 318 318 317 315 314 313 311 314 316 315 313 312 313 314 315 313 317 312 310 310 310 308 308
324 334 335 332 330 330 330 326 326 324 324 323 322 322 322 321 319 318 317 318 317 318 316 315 313 311 311 314 315 314 312 312 312 312 313 313 310 316 315 310 312 312 312
331 333 335 332 330 331 329 326 326 324 324 323 322 322 321 319 318 319 319 318 318 317 316 314 313 311 311 312 314 313 313 313 313 313 313 312 314 313 311 313 311 309 309
332 333 335 334 331 332 329 327 326 325 324 323 322 321 321 320 320 320 319 318 318 317 316 316 314 312 312 312 312 312 312 313 313 314 315 314 313 311 315 311 312 311 309
328 332 334 335 333 331 329 328 326 326 325 322 321 321 322 321 320 320 319 319 318 317 316 315 315 314 313 312 315 314 314 315 315 316 316 316 315 316 313 311 311 311 307
326 331 332 333 334 332 329 328 327 325 325 322 321 322 321 320 320 320 319 318 318 317 316 315 314 314 313 306 307 308 311 312 314 316 316 317 316 313 313 312 311 310 307
325 329 332 333 334 332 331 330 328 326 323 322 320 321 321 319 319 319 318 318 318 318 316 315 315 314 316 308 306 307 312 313 315 318 318 316 311 313 312 309 309 308 308
325 327 332 335 337 335 332 329 328 325 323 321 320 321 320 319 319 319 318 319 318 318 317 316 315 315 315 307 304 305 315 316 318 314 317 315 312 305 306 305 305 305 307
327 331 334 336 337 333 333 328 325 324 322 321 320 321 320 319 319 318 318 320 319 317 316 316 315 316 317 308 304 307 316 315 317 315 316 313 310 297 299 303 303 303 306
327 330 335 334 335 334 334 328 323 323 321 322 321 321 321 320 319 319 320 321 318 315 314 315 317 314 317 305 304 306 315 313 314 317 309 299 303 297 297 302 302 303 303
327 329 331 332 334 334 331 330 323 322 325 324 322 322 322 322 321 322 322 320 317 315 315 315 317 318 316 313 300 300 309 310 309 308 306 304 297 297 297 297 303 301 300
326 327 328 331 332 335 331 328 322 324 324 325 322 321 322 321 319 320 319 317 316 314 315 316 316 318 312 304 298 299 299 302 307 307 307 306 297 298 297 298 296 296 298
325 325 325 326 330 330 328 323 324 324 323 324 322 322 322 320 319 318 316 312 314 312 313 312 313 313 313 310 298 298 299 302 305 307 301 300 297 296 296 298 298 298 305
324 325 323 324 322 326 325 325 324 324 323 323 322 321 320 318 319 315 313 312 312 312 312 311 309 311 314 311 310 308 307 300 303 303 304 303 301 298 301 304 304 304 303
324 324 320 322 320 322 323 325 324 323 322 324 321 321 318 318 315 314 311 314 306 306 311 313 312 309 309 302 297 298 302 301 299 298 306 304 303 302 304 303 304 305 304
320 319 319 321 320 321 323 323 324 324 324 321 319 318 317 316 312 313 310 292 294 294 294 296 302 303 296 294 294 294 295 297 295 301 303 301 302 301 300 302 302 303 301
Wind_Speed
12 11 14 14 14 13 12 12 12 11 8 7 7 5 4 3 4 5 4 5 6 6 7 6 7 5 8 8 9 9 5 6 7 5 4 2 5 7 6 7 7 7 9
19 15 16 16 15 14 13 13 12 11 7 5 3 2 2 3 4 6 5 5 5 6 7 7 6 8 6 9 9 9 9 4 6 8 9 3 4 4 6 7 7 7 8
19 21 17 18 15 15 15 14 12 13 8 8 6 4 4 5 6 7 6 5 5 6 5 6 6 5 7 7 8 9 9 9 5 6 8 8 7 9 3 6 6 5 6
19 21 21 18 16 16 14 14 12 12 10 9 8 7 4 4 6 3 7 5 5 5 6 5 5 6 7 8 8 8 8 9 7 7 6 5 4 8 5 3 5 5 4
20 23 20 20 17 15 11 14 13 11 11 9 7 7 5 6 5 6 6 6 4 4 5 5 4 4 6 6 7 8 9 7 8 6 6 5 5 5 5 8 8 5 4
20 20 21 17 17 15 14 13 14 12 12 10 8 7 7 6 6 6 6 6 7 6 2 3 4 4 3 5 6 6 8 8 7 7 7 7 7 7 7 8 4 6 5
20 20 22 19 18 18 17 14 15 14 13 11 10 9 8 7 7 7 5 4 4 5 5 3 4 3 3 4 3 4 4 6 6 8 7 5 7 7 7 8 9 8 2
19 22 22 21 21 20 19 18 17 16 14 13 11 10 10 7 6 7 5 5 2 3 5 3 2 2 3 2 3 5 5 5 4 6 7 8 5 6 6 6 7 8 9
18 23 22 19 19 20 20 17 18 16 15 14 11 10 10 8 6 6 4 3 1 6 6 4 1 2 3 1 2 6 3 2 2 2 4 8 7 6 5 5 6 7 10
22 20 20 19 17 20 19 19 18 17 16 15 12 10 9 8 7 7 7 5 4 1 4 3 1 1 2 1 3 6 4 0 3 4 4 5 7 7 7 7 7 7 7
25 20 18 19 19 20 19 19 18 18 16 15 13 12 10 9 9 8 7 6 5 5 5 4 2 1 1 2 2 2 2 3 2 4 4 3 5 4 6 6 8 7 10
26 16 19 20 18 21 20 20 18 18 17 15 14 13 11 10 9 8 8 7 7 5 5 3 3 0 0 3 4 5 4 5 5 6 7 7 8 4 6 7 5 9 9
16 14 18 21 18 20 21 20 19 18 17 16 15 13 12 11 11 10 8 8 7 6 4 4 4 3 2 4 4 5 6 6 7 8 9 10 9 5 6 9 9 10 7
7 11 16 21 20 20 20 20 19 18 18 16 15 15 14 12 11 9 9 8 7 7 6 5 5 4 5 5 5 5 6 7 9 10 9 9 6 9 13 11 10 10 11
6 11 14 18 21 20 20 19 19 18 17 16 15 14 13 12 11 10 9 9 7 6 6 6 5 5 5 7 7 5 7 9 12 11 9 9 3 9 7 10 9 10 10
20 10 12 14 17 19 18 18 19 19 18 17 15 14 13 12 11 10 9 7 8 6 5 6 6 5 7 9 3 4 9 11 13 12 12 11 12 1 12 8 11 12 10
19 13 11 11 13 15 15 17 16 16 14 15 16 15 14 13 12 11 9 9 7 6 6 5 6 6 7 9 6 6 8 11 13 13 10 10 6 8 10 10 9 13 18
18 14 9 10 16 19 16 15 13 15 16 16 16 15 14 13 12 11 9 8 6 6 5 6 6 6 7 8 9 7 10 12 14 9 10 5 7 9 8 9 13 14 12
18 16 12 15 15 16 18 17 14 13 16 16 15 15 14 14 13 11 9 6 6 6 5 5 6 7 8 8 7 6 11 12 12 4 3 3 5 8 8 9 13 14 7
14 16 6 11 15 13 18 19 16 16 15 17 15 15 14 13 12 10 8 5 6 5 6 6 7 9 8 8 6 3 9 11 3 6 9 14 9 3 3 9 12 11 11
14 13 10 6 11 10 15 20 17 15 14 13 15 15 14 12 11 9 5 7 6 5 5 6 6 9 4 10 4 3 7 8 9 9 7 7 6 4 5 7 8 10 10
13 12 7 4 10 14 15 15 15 13 12 14 16 14 13 10 9 8 7 6 6 6 7 8 8 3 8 5 6 5 3 6 8 8 7 8 8 7 4 7 8 11 11
9 8 7 4 4 6 11 12 12 14 13 16 15 15 13 10 10 9 8 7 6 8 9 7 3 4 6 6 10 8 7 8 6 5 3 5 6 11 6 9 7 11 8
9 8 4 1 5 6 7 8 12 13 15 16 15 14 13 11 10 8 8 8 9 7 4 3 1 7 1 4 3 2 6 10 8 3 8 6 2 1 2 4 5 4 5
8 7 4 4 7 7 7 11 13 14 14 13 14 13 10 11 10 5 1 4 8 6 5 6 7 7 6 6 7 7 7 7 7 9 10 7 2 5 6 6 8 6 5
8 6 6 7 9 10 8 11 15 16 14 14 13 11 11 10 9 9 8 14 11 12 10 6 5 9 10 7 6 3 7 9 9 9 7 6 6 8 9 8 9 5 6
Wind_Direction
199 183 161 171 160 160 162 158 157 167 160 144 159 156 160 129 112 92 70 62 34 42 16 39 26 31 38 22 11 344 64 19 358 324 273 156 96 88 65 32 55 43 54
189 187 175 183 175 165 162 169 162 165 163 153 118 83 145 81 91 88 79 62 57 34 70 20 54 359 74 33 19 6 343 48 32 351 302 268 181 77 58 45 51 46 44
193 163 182 183 169 175 173 172 170 156 173 129 130 142 111 162 159 158 121 68 64 72 67 70 33 52 26 46 25 2 25 340 29 35 355 334 11 330 149 104 85 47 39
191 167 178 181 183 181 172 165 167 164 156 173 166 183 216 176 82 113 77 98 74 85 90 75 65 37 57 26 36 28 358 352 19 6 11 348 19 345 327 161 108 169 139
187 172 192 181 185 174 175 158 157 166 155 179 177 184 207 127 159 112 140 69 103 106 100 88 71 46 38 56 36 36 14 29 356 18 9 12 34 7 348 320 2 328 68
183 174 181 174 175 172 171 160 156 169 167 170 177 209 146 160 143 155 174 170 149 150 66 92 79 36 2 45 59 8 47 19 13 5 14 21 13 9 359 341 359 321 32
183 174 175 175 185 170 174 167 168 166 174 168 171 164 164 162 155 169 204 165 160 161 125 121 18 44 35 80 4 34 82 56 32 2 356 23 16 2 357 349 347 328 294
188 166 176 186 183 180 179 167 174 171 170 167 167 164 160 166 163 221 130 217 172 143 142 173 131 28 337 54 4 83 17 40 61 26 7 323 15 359 353 347 343 336 334
185 162 177 193 177 182 181 177 170 171 172 165 167 166 177 161 162 137 165 154 63 128 199 175 90 13 321 341 288 69 60 69 354 240 19 325 342 350 318 335 334 331 333
156 165 181 187 174 183 176 176 174 171 172 164 170 168 175 171 145 162 203 157 140 253 158 186 151 15 308 208 278 174 122 247 9 344 338 320 347 321 343 343 333 321 311
144 168 182 178 172 185 175 174 174 171 172 170 169 165 169 170 167 177 187 178 181 193 191 209 220 45 251 207 217 8 256 284 320 290 285 278 280 335 322 324 320 315 327
268 188 166 172 176 179 179 178 176 174 174 170 168 168 169 173 177 176 177 166 177 187 194 196 240 241 262 180 225 250 3 307 310 319 315 321 337 328 290 284 278 313 293
192 189 171 166 182 187 176 177 179 177 172 169 169 170 171 179 180 177 175 179 181 181 200 189 229 218 173 203 231 273 284 294 294 294 296 303 294 288 297 303 322 302 342
177 202 183 164 184 190 176 174 182 176 170 168 172 172 175 182 183 182 178 191 202 204 183 212 223 225 224 225 236 250 266 284 286 290 281 280 312 309 290 319 315 312 323
232 200 195 180 179 188 174 177 183 174 167 169 173 173 176 181 182 183 186 198 200 209 203 213 217 227 243 239 221 274 296 298 295 292 312 298 260 281 285 290 317 314 308
330 175 203 192 180 183 180 182 183 172 167 170 173 172 176 181 182 182 192 194 205 210 216 216 236 231 247 101 114 283 286 292 294 295 301 305 300 297 243 253 253 269 283
335 294 207 168 172 179 176 178 188 175 170 169 168 172 176 181 183 182 189 201 196 206 221 245 253 240 254 168 205 221 277 286 291 293 298 294 329 16 349 338 268 263 245
335 312 233 198 179 181 173 165 176 175 177 176 171 171 177 182 182 186 189 191 194 210 221 241 240 250 251 180 218 221 274 281 279 274 281 319 23 45 5 328 319 321 323
327 313 264 194 191 180 173 154 159 178 188 184 175 172 179 181 181 184 187 182 202 206 228 242 247 242 257 203 216 229 292 290 297 358 15 9 339 44 14 325 320 311 335
336 315 272 191 198 181 177 156 163 179 195 181 176 175 180 183 179 177 174 156 216 212 245 213 225 247 265 57 118 305 297 292 294 247 107 65 51 5 333 330 321 321 341
333 311 307 221 208 192 166 164 161 183 187 175 175 174 178 180 171 164 151 183 192 260 202 259 256 265 355 60 75 50 312 338 333 326 132 94 180 238 347 310 324 328 314
337 322 312 217 198 198 169 167 164 173 178 180 174 174 167 180 155 157 167 183 203 205 227 241 254 281 118 150 101 66 22 343 324 313 14 5 10 312 330 306 326 298 293
335 302 301 259 159 139 162 166 169 167 177 173 173 163 161 171 149 162 169 189 190 246 217 232 236 39 108 172 145 180 223 238 293 4 343 248 272 278 243 239 297 299 321
338 319 322 268 141 139 159 168 159 174 171 169 164 155 164 151 162 163 178 202 194 216 116 337 240 218 129 64 87 281 226 233 273 208 263 172 229 268 277 353 339 328 353
320 306 308 226 160 159 170 173 169 162 168 167 159 157 150 170 160 143 58 61 48 35 344 25 27 0 87 69 55 28 352 340 347 319 287 170 51 16 326 342 315 332 314
309 294 276 243 161 178 186 170 161 169 166 162 159 164 157 166 175 155 131 59 58 56 56 26 37 68 80 87 60 12 305 297 297 294 297 355 19 6 350 345 333 341 10